Location: Marcé
(47.5801°N, 0.3280°W)
Time: 14:13:21
(UTC+02:00)

Tiangong - Visible Passes

Search period start: 24 July 2024 00:00
Search period end: 03 August 2024 00:00
Orbit: 389 x 392 km, 41.5° (Epoch: 24 July)

Date Brightness Start Highest point End Pass type
(mag) Time Alt. Az. Time Alt. Az. Time Alt. Az.
26 Jul 0.0 22:39:09 10° S 22:40:26 12° SSE 22:40:50 12° SSE visible
27 Jul -0.6 23:16:32 10° SW 23:18:40 21° S 23:18:40 21° S visible
28 Jul -0.4 22:19:08 10° SSW 22:21:19 17° SSE 22:23:29 10° ESE visible
28 Jul -0.1 23:54:58 10° WSW 23:56:06 18° SW 23:56:06 18° SW visible
29 Jul -0.9 22:57:13 10° SW 22:59:55 25° S 23:00:59 21° SE visible
30 Jul -0.7 23:35:49 10° WSW 23:38:00 25° SSW 23:38:00 25° SSW visible
31 Jul -0.9 22:37:53 10° WSW 22:40:40 27° S 22:42:34 16° SE visible
01 Aug 0.7 00:14:46 10° WSW 00:14:52 11° WSW 00:14:52 11° WSW visible
01 Aug -0.7 23:16:37 10° WSW 23:19:12 23° S 23:19:22 23° S visible
02 Aug -0.8 22:18:32 10° WSW 22:21:15 26° S 22:23:47 11° SE visible
02 Aug 0.6 23:55:55 10° SW 23:56:05 11° SW 23:56:05 11° SW visible
